STARLINK-1681, 46559

Orbit data source: Space-Track

STARLINK-1681, 46559 is a payload satellite owned by SpaceX/Seattle (US) in LEO that was launched on Tue, 06 Oct 2020 UTC via an FALCON 9 launch vehicle from the Air Force Eastern Test Range (AFETR). Payload-class satellites include a variety of spacecraft equipped with specific instruments for various scientific and technological missions. These include communications satellites like Starlink; space stations such as the ISS; scientific satellites like the Hubble; Earth observation satellites from companies like Planet Labs, Umbra, and HawkEye 360; GPS; miniature CubeSats for education and research; and military/defense satellites.

Loading next visibility...
Identifier
46559, 2020-070AD
Orbit
LEO
Country
Flag of USUS
Related business
Manufacturer
SpaceX/Seattle
Mission
Partially operational Commercial Communications
Bus & Motor
STARLINK, Unknown motor
Mass
260 kg wet, ~248 kg dry
Launch date (UTC)
2020-10-06 (5 years ago)
Launch vehicle
FALCON 9
Launch site
Air Force Eastern Test Range (AFETR)
Object type
Payload
Rocket body
Debris
Shape & HBR
Box + 1 Pan, 4.4 m
Radar Cross Section
13.562 m², Large (>1 m²)

Expand to show TLE details & history
Last TLE update: 9 hours ago

TLE from 9 hours ago
0 STARLINK-1681
1 46559U 20070AD  25260.93041646  .00056283  00000-0  19355-2 0  9995
2 46559  53.0642 183.1405 0007151 114.6391 245.5353 15.29544310274152
Epoch: 2025-09-17T22:19Z
TLE epoch observation values (Epoch: 2025-09-17T22:19:47.982Z)
Latitude
-0.00006°
Longitude
-148.90877°
Altitude
480.096 km
Speed
7.626 km/s
True Right ascension
12h 12m 33s
True Declination
0° 00' 00"
Sunlit
Object was in daylight at epoch
Visualization orbit readout
Latitude
Unknown
Longitude
Unknown
Altitude
Unknown
Speed
Unknown
Apparent Right ascension
Unknown
Apparent Declination
Unknown
Sunlit
N/A
Visualization observer readout
Local Sidereal Time
00:24:20
Azimuth
Unknown
Elevation
Unknown
Doppler factor
Unknown
Orbital elements
Apogee altitude
482.348 km
Perigee altitude
472.543 km
Semi-major axis
6,855.582 km
Eccentricity
0.00072
Inclination
53.0642°
RAAN
183.1405°
Arg. of periapsis
114.6391°
True anomaly
245.46074°
Mean anomaly
245.5353°
Eccentric anomaly
245.49802°
Mean motion
3.82364 °/min
Orbital period
94.15 mins
BSTAR
0.0019355
Loading maneuver chart data...
Computing Atmospheric mass density...
Loading historical data...
Loading historical data...
Loading historical data...
Loading historical data...
Loading historical data...
Loading historical data...
Loading historical data...

Documentation

Showing up to 5 results
|